Tracking 34141 objects as of 18-May-2026
HD Live streaming from Space Station
objects crossing your sky now

COSMOS 839 DEB

Track COSMOS 839 DEB now!
10-day predictions


NORAD ID: 10444
Int'l Code: 1976-067V
Perigee: 877.4 km
Apogee: 2,052.4 km
Inclination: 65.8 °
Period: 115.1 minutes
Semi major axis: 7835 km
RCS: 0.0139 m2 (small)
Launch date: July 8, 1976
Source: Commonwealth of Independent States (former USSR) (CIS)
Launch site: PLESETSK MISSILE AND SPACE COMPLEX (PKMTR)

Note: This is SATELLITE DEBRIS
Your satellite tracking list
Your tracking list is empty




NASA's NSSDC Master Catalog

Two Line Element Set (TLE):
1 10444U 76067V   26138.14080558  .00000004  00000-0  14457-3 0  9998
2 10444  65.7930 129.9483 0749737 228.6033 124.8161 12.51613795275380
Source of the keplerian elements: AFSPC